[[{"header":{"parameterUnit":"m.s-1","parameterCategory":2,"la1":30.2992,"la2":30.254,"lo1":-89.0895,"lo2":-89.0443,"dy":0.0025,"dx":0.0025,"nx":19,"ny":19,"refTime":"2026-05-16T03:00:00:Z","depth":"0","parameterNumber":2,"parameterNumberName":"U-component_of_CURRENTS"},"data":[0,0,0,0.18,0.1802,0.188,0.188,0.1951,0.1952,0,0,0,0,0,0,0,0,0,0,0,0.1766,0.1767,0.18,0.1803,0.188,0.188,0.1951,0.1952,0,0,0,0,0,0,0,0,0,0,0,0.1766,0.1767,0.1768,0.1803,0.188,0.188,0.1951,0.1897,0,0,0,0,0,0,0,0,0,0,0.1824,0.1793,0.1767,0.1768,0.1803,0.188,0.188,0.1895,0.19,0.1911,0,0.1928,0,0.195,0.1957,0.1957,0,0,0,0.1792,0.1788,0.182,0.1768,0.1804,0.188,0.1842,0.1898,0.1905,0.1919,0.193,0.1933,0.1951,0.1958,0.1958,0.2048,0.2049,0,0,0.1788,0.1769,0.1816,0.1825,0.1831,0.184,0.1845,0.1902,0.1904,0.193,0.1935,0.1952,0.1958,0.1959,0.2048,0.2048,0,0,0,0.1783,0.1765,0.1797,0.1821,0.1842,0.1842,0.1848,0.1901,0.1916,0.1936,0.1953,0.1959,0.196,0.2047,0.2048,0.2151,0,0,0,0.1779,0.1764,0.1795,0.1782,0.1842,0.1876,0.1846,0.1911,0.1919,0.1953,0.1959,0.196,0.2047,0.2048,0.2147,0.2214,0,0,0,0.1761,0.1761,0.1775,0.1781,0.1822,0.1876,0.1892,0.1913,0.193,0.1957,0.196,0.2046,0.2047,0.2144,0.2207,0.2337,0,0,0,0.1732,0.1748,0.1774,0.1798,0.1821,0.1874,0.1892,0.193,0.1953,0.1959,0.2047,0.2048,0.2143,0.2203,0.2332,0.2328,0.2354,0,0,0.1734,0.1747,0.1763,0.1789,0.1839,0.1862,0.1931,0.197,0.1973,0.2023,0.2025,0.2148,0.2207,0.2336,0.2386,0.241,0,0,0,0.1752,0.1761,0.1781,0.1819,0.1865,0.1948,0.1971,0.2015,0.2092,0.1996,0.214,0.2174,0.2252,0.2237,0.2256,0.2333,0.2052,0.2052,0.2052,0.1713,0.1754,0.1791,0.1851,0.1899,0.2001,0.209,0.2156,0.2125,0.2185,0.2251,0.241,0.2391,0.2407,0.2484,0.223,0.223,0.223,0.2231,0.1718,0.175,0.1814,0.1865,0.197,0.2042,0.2214,0.2259,0.243,0.2347,0.2419,0.2336,0.2434,0.2509,0.2237,0.2236,0.2235,0.2235,0.2234,0.1686,0.1718,0.1754,0.186,0.1983,0.2106,0.2289,0.2428,0.2527,0.2628,0.2627,0.2624,0.2702,0.2665,0.2666,0.2667,0.2668,0.2669,0.2669,0.1657,0.1702,0.1755,0.1873,0.1938,0.2102,0.2362,0.2503,0.2707,0.2763,0.2762,0.2765,0.2543,0.254,0.2683,0.268,0.2679,0.2677,0.2676,0.1662,0.1685,0.1741,0.1796,0.1952,0.2046,0.2303,0.2592,0.2794,0.2892,0.3015,0.2845,0.2828,0.2809,0.2812,0.3017,0.3017,0.3017,0.3017,0.1666,0.1686,0.173,0.1779,0.1886,0.2014,0.217,0.2477,0.291,0.3119,0.3201,0.3087,0.3069,0.306,0.3036,0.3039,0.3299,0.3299,0.33,0.1704,0.1697,0.1704,0.1734,0.1825,0.1934,0.2021,0.2285,0.2971,0.332,0.3325,0.3313,0.3146,0.3112,0.3084,0.3044,0.3043,0,0]},{"header":{"parameterUnit":"m.s-1","parameterCategory":2,"la1":30.2992,"la2":30.254,"lo1":-89.0895,"lo2":-89.0443,"dy":0.0025,"dx":0.0025,"nx":19,"ny":19,"refTime":"2026-05-16T03:00:00:Z","depth":"0","parameterNumber":3,"parameterNumberName":"V-component_of_CURRENTS"},"data":[0,0,0,-0.0061,-0.0062,-0.0148,-0.0148,-0.0281,-0.0282,0,0,0,0,0,0,0,0,0,0,0,-0.003,-0.003,-0.0061,-0.0062,-0.0148,-0.0148,-0.028,-0.0282,0,0,0,0,0,0,0,0,0,0,0,-0.003,-0.003,-0.003,-0.0062,-0.0148,-0.0148,-0.028,-0.0213,0,0,0,0,0,0,0,0,0,0,-0.0128,-0.0088,-0.003,-0.003,-0.0063,-0.0148,-0.0148,-0.021,-0.0217,-0.0244,0,-0.0247,0,-0.0263,-0.029,-0.029,0,0,0,-0.0076,-0.0081,-0.0106,-0.003,-0.0063,-0.0147,-0.0113,-0.0214,-0.0223,-0.0254,-0.0249,-0.0254,-0.0265,-0.0291,-0.0291,-0.0335,-0.0335,0,0,-0.0071,-0.0049,-0.01,-0.0111,-0.0074,-0.011,-0.0116,-0.0219,-0.0222,-0.025,-0.0257,-0.0267,-0.0291,-0.0292,-0.0335,-0.0335,0,0,0,-0.0048,-0.0045,-0.0068,-0.0106,-0.0117,-0.0112,-0.0119,-0.0218,-0.0225,-0.0259,-0.0269,-0.0292,-0.0294,-0.0336,-0.0335,-0.0149,0,0,0,-0.0046,-0.0031,-0.0065,-0.0053,-0.0114,-0.0164,-0.0115,-0.0218,-0.023,-0.0268,-0.0292,-0.0295,-0.0336,-0.0335,-0.0155,0.0009,0,0,0,-0.0028,-0.0029,-0.0036,-0.0051,-0.0083,-0.0163,-0.0177,-0.0221,-0.0236,-0.029,-0.0295,-0.0337,-0.0336,-0.016,-0.0004,0.0177,0,0,0,-0.0008,-0.0007,-0.0035,-0.004,-0.0081,-0.0116,-0.0176,-0.0216,-0.0256,-0.0293,-0.0336,-0.0335,-0.0162,-0.0012,0.0168,0.0315,0.037,0,0,0.0006,-0.0005,-0.0009,-0.0036,-0.0042,-0.0106,-0.0092,-0.0172,-0.0249,-0.0308,-0.0309,-0.0153,-0.0005,0.0175,0.0372,0.0427,0,0,0,0.0003,0.001,-0.0003,-0.0011,-0.005,-0.0013,-0.0114,-0.0124,-0.0148,-0.0266,-0.0185,-0.0096,0.0012,0.0078,0.012,-0.0135,-0.0331,-0.0331,-0.0331,0.0065,0.0044,0.0071,0.0057,0.0052,0.0034,0.0079,0.0049,-0.0086,-0.0056,0.0028,0.0265,0.0331,0.0366,0.0098,-0.0048,-0.0048,-0.0047,-0.0047,0.0143,0.0198,0.0179,0.0212,0.0238,0.0265,0.0289,0.0255,0.0353,0.0179,0.0272,0.0237,0.0425,0.0121,-0.0035,-0.0037,-0.0039,-0.004,-0.0041,0.0227,0.0274,0.028,0.0385,0.0484,0.0491,0.07,0.0663,0.0587,0.0682,0.0745,0.0742,0.0508,0.0712,0.0714,0.0715,0.0717,0.0718,0.0719,0.0373,0.0382,0.0512,0.0602,0.0701,0.086,0.0982,0.108,0.1129,0.1031,0.103,0.0563,0.0498,0.0506,0.0742,0.0738,0.0735,0.0733,0.0731,0.0589,0.0605,0.0772,0.0883,0.1102,0.132,0.1407,0.1621,0.1681,0.1735,0.1108,0.1206,0.119,0.1152,0.1174,0.1571,0.1571,0.1571,0.1571,0.0786,0.0791,0.103,0.1203,0.1419,0.1541,0.1919,0.2037,0.1763,0.1529,0.1303,0.1071,0.1049,0.1004,0.097,0.0978,0.1316,0.1315,0.1314,0.1021,0.1026,0.1224,0.1317,0.1537,0.1773,0.2118,0.2254,0.1725,0.1265,0.0926,0.0937,0.0539,0.0524,0.0393,0.0366,0.0356,0,0]}],[{"header":{"parameterUnit":"m.s-1","parameterCategory":2,"la1":30.2992,"la2":30.254,"lo1":-89.0895,"lo2":-89.0443,"dy":0.0025,"dx":0.0025,"nx":19,"ny":19,"refTime":"2026-05-16T03:00:00:Z","depth":"2","parameterNumber":2,"parameterNumberName":"U-component_of_CURRENTS"},"data":[0,0,0,0.1843,0.1845,0.1924,0.1924,0.1997,0.1998,0,0,0,0,0,0,0,0,0,0,0,0.1808,0.1809,0.1843,0.1845,0.1924,0.1924,0.1997,0.1998,0,0,0,0,0,0,0,0,0,0,0,0.1808,0.1809,0.181,0.1845,0.1924,0.1924,0.1997,0.1942,0,0,0,0,0,0,0,0,0,0,0.1868,0.1836,0.1809,0.181,0.1846,0.1924,0.1924,0.194,0.1945,0.1957,0,0.1974,0,0.1996,0.2003,0.2003,0,0,0,0.1835,0.1831,0.1864,0.181,0.1847,0.1924,0.1886,0.1943,0.195,0.1964,0.1975,0.1978,0.1997,0.2004,0.2004,0.2097,0.2098,0,0,0.1831,0.1811,0.1859,0.1868,0.1874,0.1883,0.1888,0.1947,0.195,0.1975,0.198,0.1998,0.2004,0.2005,0.2097,0.2098,0,0,0,0.1825,0.1808,0.1839,0.1864,0.1886,0.1886,0.1891,0.1947,0.1961,0.1981,0.1999,0.2005,0.2006,0.2097,0.2097,0.2202,0,0,0,0.1822,0.1806,0.1837,0.1825,0.1885,0.192,0.1889,0.1956,0.1964,0.1999,0.2005,0.2006,0.2096,0.2097,0.2198,0.2266,0,0,0,0.1804,0.1804,0.1817,0.1824,0.1865,0.192,0.1936,0.1958,0.1975,0.2004,0.2007,0.2096,0.2097,0.2195,0.2258,0.2387,0,0,0,0.1774,0.179,0.1817,0.1841,0.1864,0.1919,0.1936,0.1975,0.1999,0.2005,0.2096,0.2097,0.2194,0.2254,0.2381,0.2317,0.2338,0,0,0.1777,0.179,0.1806,0.1832,0.1883,0.1907,0.1978,0.2018,0.202,0.2072,0.2074,0.2199,0.2258,0.2385,0.2378,0.2397,0,0,0,0.1795,0.1805,0.1825,0.1863,0.191,0.1995,0.2018,0.2064,0.2142,0.2043,0.2191,0.2225,0.2303,0.2251,0.2267,0.2102,0.2102,0.2102,0.2102,0.1757,0.1798,0.1836,0.1898,0.1948,0.2051,0.2142,0.2209,0.2177,0.2237,0.2304,0.2464,0.2406,0.2418,0.2283,0.2284,0.2284,0.2284,0.2285,0.1763,0.1796,0.1861,0.1915,0.2022,0.2097,0.2271,0.2315,0.2486,0.2402,0.2473,0.2354,0.2441,0.2293,0.2291,0.229,0.2289,0.2289,0.2288,0.173,0.1764,0.1801,0.1911,0.2038,0.2163,0.2361,0.2489,0.2585,0.2686,0.2641,0.2637,0.2568,0.2721,0.2722,0.2722,0.2723,0.2724,0.2724,0.1703,0.1749,0.1806,0.1927,0.1996,0.2165,0.2436,0.2593,0.2758,0.2773,0.2772,0.2612,0.2598,0.2593,0.2738,0.2735,0.2734,0.2732,0.2731,0.1715,0.1738,0.1799,0.1859,0.2028,0.2169,0.2421,0.2743,0.2917,0.3013,0.2834,0.2827,0.2803,0.2786,0.2786,0.2973,0.2973,0.2973,0.2973,0.1727,0.1747,0.1805,0.1868,0.1998,0.2168,0.2367,0.2482,0.2706,0.2646,0.2659,0.2489,0.2489,0.2435,0.2427,0.2414,0.2504,0.2503,0.2502,0.1777,0.177,0.1796,0.1841,0.1967,0.2148,0.2223,0.2099,0.2192,0.2472,0.2459,0.2964,0.2743,0.2731,0.2666,0.2646,0.2632,0,0]},{"header":{"parameterUnit":"m.s-1","parameterCategory":2,"la1":30.2992,"la2":30.254,"lo1":-89.0895,"lo2":-89.0443,"dy":0.0025,"dx":0.0025,"nx":19,"ny":19,"refTime":"2026-05-16T03:00:00:Z","depth":"2","parameterNumber":3,"parameterNumberName":"V-component_of_CURRENTS"},"data":[0,0,0,-0.0105,-0.0106,-0.0191,-0.0192,-0.0325,-0.0326,0,0,0,0,0,0,0,0,0,0,0,-0.0074,-0.0074,-0.0105,-0.0106,-0.0191,-0.0192,-0.0325,-0.0326,0,0,0,0,0,0,0,0,0,0,0,-0.0074,-0.0074,-0.0075,-0.0106,-0.0191,-0.0192,-0.0325,-0.0258,0,0,0,0,0,0,0,0,0,0,-0.0173,-0.0132,-0.0074,-0.0075,-0.0107,-0.0191,-0.0192,-0.0255,-0.0262,-0.0289,0,-0.0292,0,-0.0308,-0.0334,-0.0335,0,0,0,-0.0121,-0.0126,-0.0151,-0.0075,-0.0107,-0.0191,-0.0157,-0.0259,-0.0267,-0.0299,-0.0294,-0.0299,-0.031,-0.0335,-0.0336,-0.0381,-0.0381,0,0,-0.0116,-0.0093,-0.0145,-0.0156,-0.0118,-0.0154,-0.0159,-0.0264,-0.0267,-0.0295,-0.0302,-0.0312,-0.0336,-0.0337,-0.0381,-0.0381,0,0,0,-0.0093,-0.0089,-0.0112,-0.015,-0.0161,-0.0156,-0.0162,-0.0262,-0.027,-0.0304,-0.0314,-0.0337,-0.0338,-0.0382,-0.0381,-0.0204,0,0,0,-0.0091,-0.0075,-0.0109,-0.0097,-0.0158,-0.0208,-0.0159,-0.0263,-0.0275,-0.0313,-0.0337,-0.0339,-0.0382,-0.0382,-0.021,-0.005,0,0,0,-0.0072,-0.0073,-0.008,-0.0095,-0.0126,-0.0207,-0.0221,-0.0266,-0.028,-0.0335,-0.034,-0.0383,-0.0382,-0.0215,-0.0062,0.0092,0,0,0,-0.0052,-0.005,-0.0079,-0.0083,-0.0125,-0.0159,-0.022,-0.0259,-0.03,-0.0337,-0.0382,-0.0381,-0.0217,-0.007,0.0083,-0.0279,-0.0268,0,0,-0.0038,-0.0048,-0.0052,-0.0079,-0.0086,-0.0149,-0.0138,-0.0218,-0.0294,-0.0354,-0.0355,-0.0208,-0.0063,0.009,-0.0221,-0.0212,0,0,0,-0.004,-0.0033,-0.0045,-0.0054,-0.0092,-0.0061,-0.016,-0.0172,-0.02,-0.0311,-0.0238,-0.0151,-0.006,-0.0299,-0.0292,-0.0377,-0.0377,-0.0377,-0.0377,0.0023,0.0002,0.0027,0.0011,0.0006,-0.0016,0.0022,-0.0011,-0.014,-0.0113,-0.0032,0.0182,-0.008,-0.0076,-0.0108,-0.0107,-0.0106,-0.0106,-0.0105,0.0098,0.0147,0.0129,0.0159,0.018,0.0205,0.0221,0.0186,0.0271,0.0111,0.0188,-0.0134,-0.0058,-0.0092,-0.0094,-0.0096,-0.0098,-0.0099,-0.0099,0.018,0.022,0.0228,0.0323,0.0415,0.0419,0.058,0.0575,0.0494,0.058,0.0291,0.0281,0.0363,0.0597,0.0599,0.06,0.0601,0.0602,0.0603,0.0312,0.0322,0.0446,0.0526,0.0616,0.0762,0.0843,0.0845,0.0686,0.0518,0.0512,0.042,0.0397,0.0403,0.0624,0.062,0.0618,0.0616,0.0614,0.0507,0.0523,0.0678,0.0782,0.0957,0.0981,0.1058,0.0801,0.0831,0.0633,0.0454,0.045,0.0383,0.0366,0.0368,0.057,0.057,0.057,0.057,0.0682,0.0688,0.0889,0.1018,0.1141,0.1089,0.0925,0.0726,0.0497,0.0397,0.0407,0.012,0.012,0.0026,0.0017,0.0007,0.0118,0.0118,0.0118,0.0892,0.0891,0.1037,0.1071,0.1151,0.1075,0.074,0.0543,0.0285,0.0123,0.0569,0.0493,0.0074,0.0076,-0.008,-0.0089,-0.011,0,0]}],[{"header":{"parameterUnit":"m.s-1","parameterCategory":2,"la1":30.2992,"la2":30.254,"lo1":-89.0895,"lo2":-89.0443,"dy":0.0025,"dx":0.0025,"nx":19,"ny":19,"refTime":"2026-05-16T03:00:00:Z","depth":"4","parameterNumber":2,"parameterNumberName":"U-component_of_CURRENTS"},"data":[0,0,0,0.1138,0.1142,0.1315,0.1316,0.1444,0.1444,0,0,0,0,0,0,0,0,0,0,0,0.1076,0.1077,0.1138,0.1142,0.1315,0.1316,0.1443,0.1444,0,0,0,0,0,0,0,0,0,0,0,0.1075,0.1076,0.1078,0.1143,0.1315,0.1316,0.1443,0.1336,0,0,0,0,0,0,0,0,0,0,0.1179,0.115,0.1076,0.1078,0.1144,0.1315,0.1316,0.1332,0.1342,0.1339,0,0.1371,0,0.1411,0.1451,0.1451,0,0,0,0.1142,0.1141,0.1174,0.1078,0.1146,0.1315,0.1237,0.1338,0.1351,0.1352,0.1373,0.1379,0.1413,0.1452,0.1452,0.1613,0.1614,0,0,0.1132,0.1119,0.1166,0.1182,0.1197,0.1231,0.1242,0.1347,0.1368,0.1374,0.1383,0.1415,0.1452,0.1453,0.1612,0.1613,0,0,0,0.1105,0.1112,0.1145,0.1175,0.1215,0.1236,0.1249,0.1364,0.1371,0.1385,0.1417,0.1453,0.1454,0.1611,0.1612,0.1663,0,0,0,0.1099,0.1097,0.114,0.1136,0.1214,0.1309,0.1263,0.1364,0.1377,0.1416,0.1453,0.1455,0.161,0.1612,0.1659,0.1678,0,0,0,0.1066,0.1094,0.1112,0.1134,0.1209,0.1308,0.1323,0.1368,0.1396,0.1451,0.1455,0.1609,0.1611,0.1656,0.1672,0.1681,0,0,0,0.1047,0.1068,0.1112,0.116,0.1207,0.1304,0.1323,0.1408,0.1458,0.1453,0.161,0.1612,0.1655,0.1669,0.1678,0.1443,0,0,0,0.1049,0.1068,0.1095,0.1139,0.1211,0.128,0.1402,0.1475,0.1495,0.1565,0.1571,0.166,0.1672,0.168,0.1593,0,0,0,0,0.108,0.1092,0.1119,0.1192,0.1273,0.1385,0.1481,0.1519,0.162,0.1539,0.1697,0.1703,0.1706,0.1564,0.1624,0.1624,0.1624,0.1623,0.1623,0.1044,0.1103,0.1165,0.1253,0.1329,0.1479,0.1569,0.1656,0.1667,0.1728,0.1771,0.1851,0.1707,0.1804,0.1804,0.1805,0.1805,0.1805,0.1805,0.1077,0.1121,0.122,0.1305,0.143,0.1551,0.1688,0.1738,0.1862,0.1849,0.1848,0.1662,0.1811,0.181,0.1809,0.1809,0.1808,0.1808,0.1807,0.1073,0.1098,0.1192,0.1337,0.1463,0.16,0.1703,0.1825,0.1894,0.1949,0.1772,0.1883,0.1844,0.1942,0.1942,0.1942,0.1942,0.1942,0.1943,0.1041,0.112,0.1173,0.1332,0.1399,0.1535,0.1714,0.1774,0.1867,0.1811,0.1959,0.1896,0.1892,0.1853,0.1945,0.1945,0.1944,0.1944,0.1944,0.0982,0.1018,0.1084,0.1147,0.1301,0.1379,0.1571,0.1654,0.1687,0.1671,0.1723,0.1734,0.1684,0.1685,0.1637,0.1668,0.1665,0.1662,0,0.0903,0.0934,0.0973,0.1018,0.1096,0.1265,0.1273,0.1389,0.1499,0.1452,0.1667,0.1722,0.1729,0.1669,0.1665,0.1605,0,0,0,0.0832,0.0862,0.0842,0.0926,0.0988,0.1116,0.1278,0.1274,0.149,0.1475,0.1594,0.1612,0.1789,0.1952,0.1901,0.1896,0.1831,0,0]},{"header":{"parameterUnit":"m.s-1","parameterCategory":2,"la1":30.2992,"la2":30.254,"lo1":-89.0895,"lo2":-89.0443,"dy":0.0025,"dx":0.0025,"nx":19,"ny":19,"refTime":"2026-05-16T03:00:00:Z","depth":"4","parameterNumber":3,"parameterNumberName":"V-component_of_CURRENTS"},"data":[0,0,0,-0.0093,-0.0094,-0.0161,-0.0162,-0.0244,-0.0245,0,0,0,0,0,0,0,0,0,0,0,-0.0069,-0.007,-0.0093,-0.0094,-0.0161,-0.0162,-0.0244,-0.0245,0,0,0,0,0,0,0,0,0,0,0,-0.0069,-0.007,-0.007,-0.0094,-0.0161,-0.0162,-0.0244,-0.0197,0,0,0,0,0,0,0,0,0,0,-0.0133,-0.0112,-0.0069,-0.007,-0.0094,-0.0161,-0.0162,-0.0195,-0.02,-0.0209,0,-0.0213,0,-0.0226,-0.0249,-0.025,0,0,0,-0.0105,-0.0107,-0.012,-0.007,-0.0095,-0.0161,-0.0134,-0.0197,-0.0203,-0.0216,-0.0215,-0.0218,-0.0228,-0.025,-0.025,-0.0268,-0.0268,0,0,-0.0101,-0.009,-0.0116,-0.0123,-0.0104,-0.0132,-0.0136,-0.0201,-0.0207,-0.0215,-0.022,-0.0229,-0.025,-0.0251,-0.0268,-0.0268,0,0,0,-0.0083,-0.0087,-0.0099,-0.0119,-0.0129,-0.0133,-0.0138,-0.0204,-0.0206,-0.0221,-0.023,-0.0251,-0.0251,-0.0269,-0.0268,-0.0266,0,0,0,-0.0081,-0.0076,-0.0097,-0.0092,-0.0128,-0.0169,-0.014,-0.0202,-0.0209,-0.023,-0.0251,-0.0252,-0.0269,-0.0268,-0.0267,-0.0312,0,0,0,-0.0068,-0.0075,-0.0079,-0.0091,-0.0115,-0.0168,-0.0175,-0.0204,-0.0215,-0.025,-0.0252,-0.0269,-0.0269,-0.0268,-0.0311,-0.0364,0,0,0,-0.006,-0.0032,-0.0079,-0.005,-0.0114,-0.0105,-0.0175,-0.019,-0.0213,-0.0251,-0.0269,-0.0268,-0.0268,-0.0311,-0.0363,-0.0194,0,0,0,-0.0011,-0.0027,-0.0005,-0.0047,-0.0021,-0.0097,-0.0107,-0.0178,-0.0208,-0.025,-0.0251,-0.0267,-0.0311,-0.0364,-0.0152,0,0,0,0,0.0021,0.0036,0.0042,0.0033,0.0014,-0.006,-0.0113,-0.0156,-0.022,-0.0218,-0.0253,-0.0282,-0.0315,-0.021,-0.0265,-0.0265,-0.0265,-0.0265,-0.0265,0.0089,0.0078,0.0088,0.0064,0.0051,-0.0036,-0.0104,-0.0182,-0.0181,-0.0211,-0.0267,-0.0294,-0.0178,-0.0229,-0.0229,-0.0229,-0.0229,-0.0229,-0.0229,0.0117,0.0076,0.007,0.0075,-0.0001,-0.0033,-0.014,-0.0181,-0.0283,-0.026,-0.0291,-0.0198,-0.0228,-0.0228,-0.0228,-0.0228,-0.0228,-0.0228,-0.0228,0.0102,0.0059,0.0081,0.0017,-0.0034,-0.0092,-0.0166,-0.0254,-0.0307,-0.0352,-0.0254,-0.0323,-0.0341,-0.0355,-0.0356,-0.0356,-0.0357,-0.0357,-0.0357,0.0003,0.0018,-0.0022,-0.0062,-0.0088,-0.0136,-0.0212,-0.0235,-0.0307,-0.0274,-0.0363,-0.0339,-0.0335,-0.035,-0.0363,-0.0362,-0.0361,-0.0361,-0.036,-0.0133,-0.0112,-0.0128,-0.0145,-0.0179,-0.0171,-0.022,-0.0174,-0.0224,-0.0226,-0.0237,-0.0242,-0.0249,-0.0248,-0.026,-0.0248,-0.0246,-0.0244,0,-0.0255,-0.0245,-0.0204,-0.0179,-0.0173,-0.0169,-0.0091,-0.008,-0.0154,-0.0149,-0.0277,-0.0294,-0.0294,-0.0303,-0.0299,-0.0314,0,0,0,-0.0409,-0.0312,-0.0269,-0.0153,-0.0116,-0.0058,-0.0045,-0.0009,-0.0157,-0.0069,-0.0193,-0.0206,-0.0219,-0.0381,-0.0405,-0.04,-0.0427,0,0]}]]